Simultaneous Nadir Overpasses (SNOs) Predictions

Prediction of SNOs between GOES-17 and NOAA-19 Satellite Orbit:

Table of predicted SNOs for the next 14.0 days since TLE Epoch: 8/23/2019
Index Date Time (GOES-17) GOES-17 Lat,Lon NOAA-19 Lat,Lon Distance(km) Time Diff (sec)
1 08/24/2019 14:24:38 -0.02,-137.21 0.42,-138.99 203.10 80
2 08/25/2019 14:10:20 -0.02,-137.21 -0.25,-136.14 121.21 80
3 08/26/2019 13:58:41 -0.02,-137.21 -0.91,-133.30 445.21 80
4 08/28/2019 02:34:10 0.02,-137.19 -0.88,-141.16 452.70 80
5 08/29/2019 02:22:32 0.02,-137.18 -0.23,-138.32 129.21 80
6 08/30/2019 02:08:13 0.03,-137.17 0.41,-135.47 194.20 80
7 09/01/2019 14:31:54 -0.02,-137.15 0.77,-140.44 375.85 80
8 09/02/2019 14:20:16 -0.03,-137.14 0.10,-137.60 52.61 80
9 09/03/2019 14:05:57 -0.03,-137.13 -0.57,-134.76 270.57 80
10 09/06/2019 02:29:49 0.02,-137.08 -0.62,-139.77 306.93 80




NCC Satellite Simultaneous Nadir Overpasses (SNOs) Prediction Service
